カタログに戻る

STARLINK-35645

運用中通信VLEO
NORAD 66124·PAYLOAD·🇺🇸 United States

打ち上げ Oct 22, 2025 から Vandenberg Space Force Base

Loading…

次のパス (今後24時間)

TLE

最新Source: CelesTrak SupGP

元期: Sep 14, 2026, 20:43 UTC

1 66124C 25237L   26257.86368056  .00051137  00000+0  15108-2 0  2572
2 66124  53.1572 237.9249 0001349  97.2485 357.1180 15.34365501    11

AllMySatでSTARLINK-35645をリアルタイム追跡

Download on the App Store